Wind_Speed
40 39 41 41 41 37 36 39 46 49 50 50 51 50 51 52 51 52 51 51 50 49 47 46 46 44 42 42 40 38 37 35 32 28 26 25 23 20 19 19 17 16 15 13 11 10 9 8 10
46 45 43 41 39 38 37 46 47 50 51 48 51 53 51 48 49 51 55 55 55 52 51 49 49 46 46 43 42 39 39 38 36 33 30 27 25 22 20 20 18 17 15 14 14 14 13 12 13
56 51 49 47 44 40 44 50 49 52 52 47 51 54 50 49 50 52 54 55 54 56 54 53 52 49 48 46 44 41 39 38 35 34 33 29 26 24 21 20 20 18 17 16 15 15 15 14 15
57 58 56 48 51 53 54 56 55 55 53 49 53 55 53 51 53 55 54 53 54 56 56 55 53 51 50 48 46 44 40 37 35 32 32 30 28 25 23 21 21 20 19 17 17 17 16 16 16
66 65 63 59 56 58 61 66 65 59 58 55 55 57 52 52 53 53 54 57 57 56 57 57 56 54 51 50 47 46 43 40 36 33 32 31 30 28 26 24 22 22 20 19 18 18 17 16 16
59 61 66 66 67 68 69 68 68 64 63 61 60 59 55 52 55 55 52 57 61 58 58 59 58 57 55 53 51 49 47 44 41 37 35 34 32 31 28 27 25 23 22 20 20 19 17 17 17
52 56 55 57 61 64 66 68 70 70 68 67 66 64 60 60 56 56 55 58 61 60 61 61 59 60 58 55 53 52 50 47 45 43 38 38 34 32 31 30 29 26 24 21 20 20 20 19 17
54 51 50 51 58 63 69 71 72 71 71 71 66 64 61 61 62 62 59 59 59 59 61 63 62 61 61 59 56 53 52 49 49 47 43 40 38 34 32 32 32 29 27 24 22 20 19 20 18
58 52 48 49 53 55 63 65 70 69 70 69 65 64 66 66 68 67 63 60 60 59 59 62 64 64 63 61 58 56 54 51 50 49 47 44 41 39 36 33 33 33 30 28 24 23 20 20 18
65 58 54 60 61 56 61 60 60 62 60 65 62 59 60 64 65 66 68 66 64 60 61 59 63 65 66 64 62 59 57 55 52 50 49 47 44 43 40 37 35 35 34 32 29 25 23 23 21
69 64 70 64 62 56 59 59 59 58 53 58 59 56 57 58 63 63 65 65 68 68 62 60 61 62 66 67 65 62 60 58 54 51 50 46 46 45 43 41 38 37 37 35 32 29 27 26 24
64 67 70 69 72 68 63 59 58 55 52 56 56 48 47 49 59 66 67 64 64 67 68 63 64 62 66 66 67 66 64 61 58 57 54 50 47 47 46 44 41 39 38 38 36 33 30 29 27
62 62 73 75 78 73 73 67 59 60 57 56 56 53 50 50 49 57 62 63 66 66 65 66 64 69 67 67 66 67 69 66 62 61 58 55 51 48 48 47 44 42 41 40 39 36 34 33 31
76 74 67 75 75 75 73 78 74 62 65 63 62 59 56 56 57 54 54 59 63 66 65 64 67 71 70 68 67 67 69 68 66 67 62 59 57 53 49 48 47 44 44 43 42 40 38 37 35
84 83 81 71 67 76 82 80 72 77 71 69 68 67 60 60 62 61 59 56 57 62 63 63 64 72 73 71 69 69 68 67 66 68 66 64 61 58 53 50 49 47 45 45 45 44 42 40 39
95 94 85 67 77 75 88 76 79 84 81 75 74 72 70 65 63 66 64 61 60 58 56 62 61 66 73 73 72 72 69 69 69 68 66 65 64 61 58 53 50 50 48 47 47 48 46 44 41
101 92 82 75 84 90 95 77 87 88 92 88 82 79 74 73 70 70 70 69 65 64 59 57 61 63 65 72 75 75 72 70 70 70 69 67 64 63 61 58 54 52 51 50 49 50 49 48 46
101 104 96 94 95 100 99 88 86 94 96 93 89 86 85 79 75 74 75 75 73 68 64 59 56 60 65 67 71 74 73 74 70 72 72 70 67 65 63 61 58 54 53 52 52 50 51 50 49
108 108 106 99 100 109 106 95 97 94 98 96 94 92 89 87 83 81 79 78 77 72 70 65 60 57 63 67 66 69 73 75 74 72 74 73 70 67 65 64 62 58 55 54 53 52 52 52 51
111 112 111 105 104 115 114 102 94 104 102 99 97 96 91 90 91 86 82 82 79 77 73 73 70 65 63 64 66 66 69 71 74 75 73 72 73 70 68 67 65 63 58 55 54 54 52 53 53
105 104 107 106 107 116 114 109 99 104 101 102 100 97 98 93 92 92 86 83 86 83 78 75 76 69 66 62 64 66 67 70 70 70 73 73 73 74 71 68 67 67 63 59 56 55 54 53 54
97 94 94 96 111 98 106 107 104 107 103 104 104 100 98 99 98 95 89 88 87 87 86 83 78 78 68 68 65 65 72 62 71 77 76 74 74 74 73 72 69 67 67 63 59 57 56 55 54
89 90 91 91 93 95 94 98 93 101 107 104 102 103 103 102 103 100 95 92 94 94 94 90 85 80 77 73 70 65 66 55 69 80 78 75 73 72 74 73 72 68 69 69 64 62 58 57 56
77 84 86 88 89 88 80 85 75 87 90 96 104 107 105 105 104 102 100 96 96 97 98 96 88 82 86 79 71 68 74 74 77 75 79 79 75 74 72 71 70 70 70 71 70 66 63 60 58
69 74 78 83 79 62 75 80 69 76 78 87 95 101 103 102 102 101 100 98 97 99 99 98 93 89 84 85 78 71 70 79 79 82 77 78 79 76 75 72 71 69 68 69 72 72 68 64 61
58 64 69 71 64 61 75 75 57 62 72 85 93 95 97 98 98 99 99 99 101 101 100 100 98 96 91 86 83 77 75 74 71 80 82 79 78 78 78 77 75 72 68 67 70 73 72 69 66
50 54 62 64 66 73 72 64 57 60 69 75 82 87 94 98 98 98 100 100 101 100 98 98 101 99 97 90 86 83 79 77 70 70 82 85 83 82 82 81 76 73 69 68 68 71 75 74 71
47 49 51 55 64 70 69 63 57 58 56 65 76 78 82 85 90 95 97 98 98 97 97 96 98 102 102 95 91 88 82 76 73 68 78 85 87 87 86 85 80 75 71 68 70 70 75 78 76
42 43 46 54 61 66 65 60 54 63 60 64 64 67 73 78 84 90 93 92 92 93 93 94 96 99 100 97 95 89 84 76 73 71 76 83 85 87 91 90 87 83 77 70 70 73 76 77 78
40 40 43 50 58 64 66 58 56 62 57 59 61 67 71 73 77 82 86 85 85 85 87 89 90 91 94 94 91 88 87 81 77 74 77 83 81 88 91 88 85 83 79 74 70 73 75 78 78
Wind_Direction
258 260 261 258 256 250 241 243 245 248 242 240 239 238 233 233 231 237 237 236 239 239 239 240 244 244 246 252 256 258 262 264 264 270 269 269 268 276 278 276 280 286 281 274 255 241 255 263 282
254 254 257 258 256 255 249 248 247 249 248 244 243 245 241 240 237 234 235 238 241 240 239 239 242 244 244 247 251 254 258 261 263 266 270 269 268 269 269 273 277 279 279 270 250 245 255 267 278
256 255 258 259 255 252 244 251 254 254 251 250 248 245 242 240 238 235 235 236 237 238 238 238 240 241 243 245 247 251 255 259 260 264 264 266 265 264 263 269 272 275 275 272 255 252 258 271 284
260 260 257 259 257 255 249 249 249 252 255 252 252 249 244 239 236 236 239 237 236 236 237 238 239 239 240 242 245 247 251 254 255 259 260 262 262 261 257 261 264 268 269 273 264 258 258 271 286
258 259 257 257 254 254 254 250 255 255 256 253 252 254 249 245 242 237 237 239 238 236 236 238 238 238 237 240 242 245 247 248 251 252 257 258 259 262 258 255 259 262 264 271 271 267 270 276 287
262 259 257 255 256 257 258 258 256 254 255 255 254 255 256 248 246 241 237 238 239 236 236 237 239 238 237 237 239 242 244 247 247 249 252 256 258 259 261 255 255 256 259 265 268 270 273 277 286
260 258 258 257 254 255 252 252 254 255 254 256 257 255 254 255 250 247 241 241 240 238 236 237 238 237 238 238 238 239 242 244 247 248 249 252 255 256 260 258 254 254 254 255 263 266 269 272 282
260 257 259 263 258 254 252 251 252 255 256 258 253 254 252 248 250 247 244 240 240 238 237 237 236 237 239 239 238 238 240 242 245 247 248 249 249 253 257 259 255 255 254 252 254 259 261 269 276
255 254 256 255 255 250 253 254 253 251 252 255 254 252 250 250 249 247 246 242 240 236 237 237 237 237 238 239 239 239 238 239 243 245 248 246 247 249 252 257 256 255 256 254 252 254 256 263 273
253 250 252 256 252 253 254 252 256 254 250 249 249 246 246 248 248 248 249 245 244 240 237 237 237 237 237 238 239 239 239 240 241 244 247 247 247 248 250 253 256 254 255 258 254 253 254 257 266
252 247 249 250 249 253 251 253 251 252 253 250 244 243 243 246 247 245 242 242 243 242 239 236 237 236 238 238 238 240 240 241 242 244 245 246 247 248 250 251 255 256 255 256 258 255 255 257 262
248 246 247 248 250 249 250 245 247 248 251 251 248 246 245 247 243 245 244 242 242 242 242 237 234 235 235 236 237 237 240 241 241 243 245 245 246 247 249 251 253 255 255 255 257 259 258 258 260
266 256 245 244 247 249 250 248 244 243 246 249 251 247 243 244 247 246 246 244 243 241 241 239 237 237 235 234 236 237 239 239 241 243 244 246 247 247 248 250 253 253 253 252 253 256 258 258 258
263 256 249 243 245 247 247 248 247 248 243 241 244 245 241 240 247 247 246 244 242 242 242 239 237 237 237 234 234 235 238 238 240 242 243 245 247 247 247 248 250 252 252 252 252 253 256 258 260
260 256 253 247 249 248 245 242 250 250 244 240 240 241 239 238 242 248 245 244 243 243 242 241 237 237 235 235 234 234 236 237 237 242 241 243 245 247 247 246 248 250 251 251 251 252 254 256 259
262 256 245 256 252 250 246 237 241 245 247 237 238 239 237 235 237 241 246 243 244 240 242 240 239 239 238 235 234 235 235 236 236 237 240 241 243 244 246 246 246 248 250 251 251 252 253 255 256
261 260 260 252 252 247 247 239 239 240 242 244 238 234 236 236 232 235 240 244 242 245 238 239 240 240 238 237 234 236 235 236 235 237 238 239 241 242 243 246 245 245 247 249 250 251 252 255 258
269 261 250 246 246 247 244 239 239 237 238 241 241 236 233 234 234 232 235 239 242 242 243 239 236 239 238 238 236 235 236 238 236 235 238 238 239 240 241 242 245 244 245 247 249 251 252 254 256
257 255 251 249 249 250 250 239 237 240 239 238 240 241 236 232 233 232 233 234 238 241 243 241 242 237 238 237 238 235 236 237 237 235 235 237 239 239 239 240 243 244 244 246 248 250 252 254 255
257 255 251 247 247 249 249 243 237 239 241 238 236 239 241 235 234 232 232 236 236 237 239 244 242 239 233 236 235 236 236 238 238 237 236 237 239 240 241 241 241 244 245 246 248 250 252 253 254
256 254 254 251 244 245 243 242 235 237 237 239 238 236 238 240 236 233 229 234 237 236 237 239 242 239 236 234 234 234 236 236 239 240 239 238 239 239 240 241 241 244 245 245 247 250 252 253 255
253 251 249 247 249 244 245 242 235 235 235 235 237 234 236 237 234 233 231 230 235 236 236 236 238 241 238 239 229 232 234 241 241 236 236 236 236 237 240 241 241 242 244 245 246 248 252 254 255
250 245 245 241 242 244 241 242 234 232 231 233 235 235 231 234 234 231 230 230 230 235 235 236 235 238 240 239 234 225 222 231 238 237 236 238 239 240 240 241 242 242 244 245 245 247 250 253 256
248 241 240 241 240 241 240 240 235 232 232 231 232 234 231 230 230 229 229 228 230 232 234 234 235 235 239 238 236 229 221 228 237 235 236 237 237 241 240 242 243 242 244 246 246 247 248 251 254
245 241 236 237 238 241 239 238 229 230 226 227 227 229 230 229 229 228 227 227 229 231 233 233 233 235 237 239 238 234 228 228 236 236 236 236 237 239 241 241 242 243 244 247 250 249 250 250 253
244 240 236 236 234 232 232 233 230 226 224 222 223 223 224 225 227 227 225 226 228 229 232 232 232 234 235 236 238 238 236 231 231 237 235 235 236 236 238 240 242 243 246 246 249 250 250 251 251
237 230 226 224 222 222 226 227 221 222 225 223 222 220 222 223 225 226 226 225 227 229 231 232 232 233 236 236 237 238 238 233 233 233 235 233 235 237 238 239 239 241 244 248 250 252 252 251 251
232 229 225 220 217 221 221 220 215 219 216 218 220 222 224 226 226 227 226 226 227 228 230 231 231 231 234 236 237 238 238 237 231 232 234 233 234 237 239 239 239 239 242 244 248 250 252 252 253
226 221 214 211 209 217 218 215 211 214 212 213 217 217 220 223 224 226 226 225 225 227 230 231 231 232 233 235 238 240 242 239 237 232 233 234 235 237 240 241 241 242 242 243 246 248 251 253 254
218 214 211 207 203 210 211 204 205 212 210 209 212 217 218 217 220 222 223 222 224 226 229 230 229 232 233 234 237 239 240 239 238 233 231 234 231 232 237 239 241 241 244 243 243 248 250 252 255
Height
10767 10769 10770 10773 10777 10784 10785 10783 10778 10777 10780 10786 10787 10792 10795 10801 10811 10814 10813 10815 10819 10822 10826 10829 10831 10835 10839 10841 10844 10847 10849 10851 10853 10854 10855 10857 10858 10860 10861 10861 10861 10861 10862 10862 10862 10863 10864 10863 10863
10759 10760 10762 10765 10769 10773 10775 10769 10769 10768 10770 10778 10780 10782 10789 10797 10802 10804 10803 10807 10811 10814 10818 10821 10823 10829 10832 10835 10838 10841 10843 10846 10848 10850 10851 10852 10854 10856 10858 10858 10859 10859 10859 10860 10860 10861 10861 10861 10860
10748 10749 10751 10757 10761 10764 10761 10756 10759 10759 10763 10770 10771 10772 10781 10788 10793 10794 10794 10798 10803 10805 10809 10812 10815 10822 10823 10828 10831 10834 10838 10840 10843 10844 10846 10848 10850 10852 10854 10855 10856 10857 10857 10857 10858 10858 10859 10859 10858
10737 10739 10740 10746 10751 10748 10749 10745 10746 10749 10754 10761 10759 10761 10771 10776 10779 10788 10789 10790 10794 10796 10800 10803 10808 10813 10815 10820 10824 10827 10831 10835 10837 10840 10842 10843 10845 10847 10849 10851 10852 10853 10854 10855 10855 10855 10856 10856 10855
10724 10726 10729 10735 10735 10734 10734 10734 10735 10740 10743 10747 10750 10750 10761 10767 10769 10777 10783 10781 10783 10788 10792 10795 10800 10803 10808 10811 10816 10820 10824 10828 10831 10834 10836 10838 10840 10842 10844 10846 10848 10850 10851 10851 10851 10851 10852 10852 10852
10709 10711 10717 10721 10720 10720 10721 10719 10719 10726 10730 10735 10739 10742 10748 10754 10756 10764 10774 10770 10770 10779 10783 10786 10791 10796 10799 10802 10807 10812 10817 10821 10824 10828 10830 10832 10835 10837 10839 10841 10843 10846 10847 10848 10847 10847 10847 10847 10848
10697 10699 10704 10704 10705 10704 10702 10705 10705 10710 10717 10721 10726 10729 10736 10740 10746 10751 10757 10759 10761 10768 10773 10776 10781 10786 10790 10795 10799 10803 10808 10813 10817 10821 10824 10826 10829 10832 10834 10835 10838 10841 10843 10844 10844 10844 10844 10843 10843
10684 10688 10692 10692 10690 10691 10686 10689 10693 10697 10702 10704 10712 10718 10722 10724 10729 10732 10738 10746 10749 10755 10761 10765 10771 10776 10781 10786 10791 10795 10800 10804 10808 10812 10816 10820 10822 10825 10828 10830 10832 10835 10838 10840 10841 10841 10841 10840 10840
10669 10675 10680 10677 10673 10673 10672 10679 10679 10683 10687 10691 10698 10703 10703 10709 10712 10717 10724 10732 10736 10743 10748 10755 10761 10766 10770 10776 10782 10786 10791 10795 10800 10805 10809 10812 10816 10818 10821 10824 10826 10829 10832 10835 10836 10837 10837 10835 10837
10651 10660 10664 10656 10658 10662 10661 10666 10666 10669 10671 10677 10683 10688 10690 10691 10697 10704 10712 10718 10723 10731 10737 10744 10749 10755 10759 10765 10772 10777 10782 10787 10791 10796 10799 10805 10809 10811 10814 10817 10820 10822 10825 10828 10830 10832 10832 10830 10832
10631 10646 10638 10643 10642 10647 10650 10652 10654 10656 10662 10659 10665 10673 10679 10679 10684 10689 10697 10703 10708 10715 10724 10732 10737 10743 10748 10755 10761 10768 10772 10777 10784 10786 10790 10796 10799 10803 10807 10810 10813 10816 10818 10821 10823 10825 10826 10825 10826
10610 10619 10620 10626 10623 10630 10635 10636 10642 10646 10648 10644 10650 10662 10666 10668 10671 10672 10682 10689 10695 10700 10708 10719 10724 10730 10733 10742 10749 10757 10761 10768 10773 10776 10781 10786 10790 10794 10798 10802 10805 10808 10811 10814 10816 10818 10819 10819 10821
10595 10595 10594 10599 10602 10612 10616 10622 10626 10630 10633 10633 10636 10647 10653 10654 10658 10662 10666 10674 10681 10688 10696 10704 10713 10714 10720 10730 10737 10744 10749 10757 10763 10765 10772 10776 10780 10785 10789 10793 10797 10800 10803 10806 10808 10811 10812 10811 10814
10565 10564 10575 10580 10587 10590 10598 10600 10604 10620 10615 10617 10620 10624 10638 10643 10644 10650 10655 10661 10667 10673 10681 10688 10700 10699 10708 10718 10724 10731 10736 10745 10753 10753 10761 10766 10770 10775 10779 10784 10788 10791 10794 10797 10800 10803 10804 10805 10805
10535 10534 10543 10561 10567 10569 10568 10579 10601 10595 10593 10596 10601 10608 10617 10628 10631 10635 10642 10648 10653 10661 10668 10676 10682 10685 10694 10703 10713 10718 10722 10732 10740 10741 10750 10754 10758 10764 10769 10774 10778 10782 10785 10789 10792 10794 10796 10797 10798
10494 10495 10519 10558 10541 10545 10533 10567 10571 10570 10576 10580 10582 10588 10599 10609 10616 10619 10625 10634 10641 10647 10655 10662 10669 10673 10680 10689 10698 10703 10711 10718 10725 10730 10737 10742 10747 10753 10758 10764 10768 10772 10775 10779 10782 10785 10787 10789 10790
10454 10475 10498 10522 10511 10499 10498 10540 10538 10543 10547 10555 10561 10568 10577 10585 10599 10604 10609 10615 10625 10630 10642 10648 10656 10661 10667 10672 10683 10690 10697 10703 10712 10719 10723 10729 10736 10741 10747 10753 10757 10761 10765 10769 10772 10775 10778 10780 10783
10430 10422 10439 10454 10466 10452 10464 10505 10511 10513 10520 10530 10536 10545 10553 10565 10578 10587 10592 10598 10607 10615 10625 10634 10644 10648 10654 10661 10668 10677 10686 10691 10699 10705 10710 10717 10723 10729 10736 10741 10746 10751 10754 10758 10761 10765 10767 10770 10773
10372 10380 10392 10416 10433 10420 10429 10466 10480 10490 10490 10508 10517 10523 10533 10546 10553 10564 10576 10582 10590 10602 10608 10619 10627 10637 10642 10649 10656 10663 10672 10676 10684 10691 10696 10703 10710 10717 10724 10729 10734 10739 10744 10748 10752 10755 10757 10760 10762
10327 10337 10353 10378 10391 10381 10398 10426 10461 10446 10464 10480 10491 10501 10515 10522 10533 10544 10559 10568 10577 10585 10592 10599 10608 10619 10628 10635 10642 10651 10656 10661 10669 10679 10686 10693 10700 10707 10713 10718 10723 10728 10734 10738 10741 10745 10746 10749 10751
10287 10302 10316 10328 10342 10336 10361 10380 10420 10418 10437 10447 10462 10480 10487 10501 10513 10523 10540 10552 10557 10569 10577 10583 10590 10600 10611 10621 10630 10638 10643 10648 10659 10668 10674 10680 10685 10693 10699 10705 10710 10716 10721 10726 10731 10734 10735 10737 10740
10248 10266 10280 10293 10283 10312 10329 10341 10376 10385 10404 10416 10430 10452 10469 10473 10486 10500 10519 10533 10541 10550 10556 10564 10573 10583 10595 10605 10615 10623 10632 10642 10644 10647 10653 10663 10670 10678 10685 10691 10698 10703 10708 10715 10719 10722 10724 10726 10728
10216 10235 10242 10254 10264 10273 10293 10304 10336 10354 10365 10388 10412 10423 10437 10447 10460 10476 10496 10508 10518 10524 10535 10544 10555 10564 10577 10588 10598 10609 10622 10622 10622 10632 10643 10653 10660 10667 10672 10678 10684 10691 10696 10700 10706 10709 10712 10714 10717
10190 10197 10210 10225 10236 10245 10277 10279 10317 10327 10356 10371 10376 10386 10406 10420 10434 10452 10470 10484 10496 10502 10512 10526 10539 10550 10562 10573 10585 10594 10603 10604 10607 10619 10629 10637 10644 10651 10658 10664 10671 10677 10681 10686 10691 10696 10700 10703 10705
10161 10170 10184 10194 10211 10247 10252 10254 10286 10296 10321 10336 10348 10359 10375 10393 10407 10427 10448 10464 10474 10485 10493 10508 10523 10533 10545 10558 10569 10579 10586 10590 10597 10606 10614 10621 10630 10638 10644 10649 10655 10661 10668 10674 10679 10683 10687 10690 10692
10140 10148 10162 10178 10210 10231 10225 10237 10276 10287 10296 10302 10312 10332 10350 10371 10387 10404 10423 10440 10450 10462 10472 10488 10503 10513 10525 10541 10553 10561 10567 10575 10584 10591 10600 10607 10614 10620 10627 10633 10640 10648 10655 10660 10665 10669 10673 10677 10678
10120 10131 10142 10164 10188 10191 10211 10237 10257 10268 10278 10293 10304 10318 10330 10348 10365 10379 10394 10415 10429 10442 10453 10470 10483 10495 10507 10522 10535 10543 10549 10560 10570 10576 10582 10591 10599 10606 10612 10619 10626 10633 10640 10646 10652 10655 10658 10661 10663
10106 10118 10136 10154 10170 10182 10200 10222 10245 10252 10266 10280 10285 10304 10322 10338 10350 10362 10377 10396 10412 10423 10432 10446 10462 10477 10487 10502 10514 10524 10534 10544 10555 10562 10567 10574 10581 10589 10597 10605 10612 10617 10625 10631 10636 10639 10642 10645 10649
10100 10111 10125 10138 10155 10172 10193 10214 10233 10232 10246 10260 10278 10295 10307 10319 10330 10342 10356 10377 10393 10403 10413 10427 10443 10457 10471 10486 10497 10510 10521 10532 10539 10549 10554 10559 10569 10575 10582 10590 10597 10604 10610 10615 10620 10623 10626 10631 10635
10092 10105 10119 10132 10147 10161 10178 10204 10216 10224 10244 10256 10266 10277 10289 10301 10312 10325 10338 10361 10376 10389 10398 10409 10427 10441 10452 10467 10479 10492 10501 10513 10521 10532 10538 10543 10554 10557 10564 10572 10581 10589 10594 10599 10603 10606 10610 10615 10620